Home   Weather   Cape Coral   Past weeks

Flag for USA Past Weather in Cape Coral, Florida, USA — Yesterday and Last 2 Weeks

Now
88 °F

Sunny.


Feels Like: 92 °F
Forecast: 71 / 92 °F
Wind: 13 mph from Northwest

Location: Page Field

Current Time: May 27, 2017 at 7:22:40 pm

Latest Report: May 27, 2017 at 6:53 pm


Visibility: 10 mi

Pressure: 30.03 "Hg

Humidity: 54%

Dew Point: 69 °F

Location of Cape CoralLocation

Past Weather in Cape Coral — Graph

°F

Cape Coral Temperature Yesterday

Maximum temperature yesterday: 91 °F (at 2:53 pm)
Minimum temperature yesterday: 70 °F (at 4:53 am)
Average temperature yesterday: 80 °F

High & Low Weather Summary for the Past Weeks

 TemperatureHumidityPressure
High96 °F (May 16, 3:53 pm)100% (May 15, 4:53 am)30.12 "Hg (May 15, 4:53 am)
Low70 °F (May 15, 4:53 am)32% (May 16, 2:53 pm)29.74 "Hg (May 24, 5:56 pm)
Average81 °F74%29.95 "Hg
* Reported May 12 5:53 pm — May 27 5:53 pm, Cape Coral. Weather by CustomWeather, © 2017

Note: Actual official high and low records may vary slightly from our data, if they occured in-between our weather recording intervals... More about our weather records

Advertising

Cape Coral Weather History for the Previous 24 Hours

Scroll right to see more
 ConditionsComfort  
Time TempWeatherWind HumidityBarometerVisibility
5:53 pm
Sat, May 27
90 °FSunny.13 mph48%30.04 "Hg10 mi
4:53 pm91 °FSunny.14 mph50%30.04 "Hg10 mi
3:53 pm92 °FSunny.13 mph49%30.05 "Hg10 mi
2:53 pm92 °FSunny.10 mph51%30.06 "Hg10 mi
1:53 pm91 °FSunny.8 mph50%30.07 "Hg10 mi
12:53 pm91 °FSunny.8 mph50%30.08 "Hg10 mi
11:53 am88 °FSunny.8 mph52%30.09 "Hg10 mi
10:53 am85 °FSunny.3 mph53%30.09 "Hg10 mi
9:53 am83 °FSunny.No wind55%30.09 "Hg10 mi
8:53 am79 °FSunny.5 mph60%30.08 "Hg10 mi
7:53 am74 °FSunny.3 mph71%30.08 "Hg10 mi
6:53 am70 °FSunny.No wind84%30.06 "Hg10 mi
5:53 am71 °FClear.3 mph81%30.05 "Hg10 mi
4:53 am71 °FClear.No wind84%30.04 "Hg10 mi
3:53 am72 °FClear.7 mph84%30.05 "Hg10 mi
2:53 am74 °FClear.3 mph88%30.04 "Hg10 mi
1:53 am77 °FClear.3 mph79%30.05 "Hg10 mi
12:53 am78 °FClear.3 mph79%30.06 "Hg10 mi
11:53 pm
Fri, May 26
79 °FClear.6 mph79%30.07 "Hg10 mi
10:53 pm81 °FClear.6 mph77%30.06 "Hg10 mi
9:53 pm82 °FClear.6 mph72%30.05 "Hg10 mi
8:53 pm83 °FClear.7 mph68%30.03 "Hg10 mi
7:53 pm86 °FSunny.10 mph57%30.02 "Hg10 mi
Weather by CustomWeather, © 2017

See weather overviewHow to use our weather pages